Location: Catstown
(52.4386°N, 7.2633°W)
Time: 02:19:44
(UTC+00:00)

Cosmos 1867 - Pass Details

Date: 18 September 2020
Orbit: 777 x 799 km, 65.0° (Epoch: 30 October)

Event Time Altitude Azimuth Distance (km) Brightness Sun altitude
Rises 20:06:23 0° 315° (NW) 3,314 8.1 -14.2°
Reaches altitude 10° 20:08:53 10° 310° (NW) 2,381 7.3 -14.6°
Maximum altitude 20:14:06 47° 238° (WSW) 1,058 4.5 -15.3°
Drops below altitude 10° 20:19:17 10° 166° (SSE) 2,365 5.7 -16.0°
Enters shadow 20:19:18 10° 166° (SSE) 2,370 5.7 -16.0°
